Wetbulb
46.67 46.79 46.96 47.42 47.78 48.03 45.72 40.54 32.03 45.35 47.03 34.07 33.67 30.43 33.09 38.23 37.04 40.11 38.69 39.88 38.20 37.27 37.52 35.60 35.82 35.66 37.57 41.41 39.95 37.10 38.92 34.18 28.98 31.45 36.65 37.99 35.48 32.94 33.85 22.87 25.00 27.15 22.81 24.56
45.63 46.15 46.38 47.02 47.31 47.58 40.29 34.18 36.27 45.66 44.43 28.35 29.71 33.21 33.99 35.99 35.83 36.24 37.44 37.21 40.29 40.29 36.86 33.11 37.34 38.08 41.95 40.97 39.01 37.20 36.94 29.56 25.07 28.89 31.61 34.45 31.60 34.45 35.37 34.45 31.83 25.25 22.28 25.31
44.96 45.29 45.93 46.26 46.80 47.34 41.87 34.40 29.31 35.35 39.59 37.54 32.02 29.40 30.33 31.55 38.29 37.18 39.03 38.50 40.37 37.50 35.37 38.05 33.55 37.45 41.10 40.95 39.80 42.74 40.15 32.74 28.10 25.94 29.59 31.87 28.26 32.04 34.74 33.19 25.08 26.50 27.83 29.74
44.50 44.72 45.15 45.83 46.04 46.40 42.01 34.33 30.66 35.74 28.93 31.64 32.21 33.23 32.73 30.45 31.13 37.11 38.45 35.84 37.13 36.90 33.94 34.07 32.99 35.89 38.31 38.99 40.85 37.95 35.97 27.86 31.19 33.19 33.88 34.70 33.17 32.18 32.57 29.94 31.33 26.32 30.54 30.66
44.07 44.77 44.97 45.58 45.79 46.29 39.03 31.32 30.35 36.10 34.34 33.75 31.92 31.98 30.26 30.61 33.18 34.84 33.77 33.99 36.18 37.35 35.24 35.08 32.98 35.31 34.33 34.17 36.31 34.63 36.26 28.57 31.19 28.67 33.18 33.09 31.02 33.22 32.43 32.45 32.97 33.46 32.91 31.39
44.03 44.85 45.29 45.23 45.72 45.20 37.69 37.48 37.30 33.68 31.78 33.01 30.63 29.67 30.92 31.63 34.40 35.99 37.60 37.02 35.37 34.99 38.00 40.53 40.38 39.86 39.44 37.17 32.72 31.60 30.68 29.54 27.64 23.62 30.52 30.50 25.23 28.33 30.77 29.56 34.63 33.56 27.02 32.05
43.65 44.60 45.03 45.09 45.74 45.34 40.85 38.06 36.45 31.84 26.55 30.08 32.02 32.75 33.56 33.00 34.10 32.42 37.02 37.85 36.44 39.69 42.98 42.28 40.70 39.50 38.91 37.27 35.46 35.63 30.39 29.86 28.74 24.96 27.80 18.31 30.27 36.89 35.60 33.12 33.62 34.57 33.88 33.20
44.04 44.46 44.85 45.20 45.30 45.49 41.87 41.32 37.95 33.29 26.91 31.03 31.90 32.75 33.17 34.65 36.12 35.65 36.10 39.13 41.18 42.97 39.95 33.69 31.05 30.82 31.38 33.03 35.46 34.72 34.89 30.28 26.11 22.96 22.93 28.31 32.33 35.20 34.27 32.68 30.92 35.74 33.23 33.63
45.52 45.33 45.82 45.42 46.65 46.63 43.74 41.68 42.11 36.66 29.65 28.43 35.22 33.40 34.57 31.18 31.08 32.41 35.30 40.06 43.08 40.44 33.90 31.32 25.90 22.69 26.03 25.78 29.85 35.86 34.83 33.70 27.92 25.83 21.28 18.75 29.27 36.35 39.24 38.18 25.44 36.04 35.57 33.82
43.84 43.55 43.76 44.07 44.41 45.40 44.79 41.64 43.47 38.83 31.70 33.32 34.53 31.92 32.66 36.28 33.38 31.03 32.39 35.92 36.44 41.82 30.23 28.58 26.63 24.75 30.26 24.16 24.33 25.73 26.88 27.71 25.13 25.25 23.71 26.69 34.93 37.00 38.97 25.14 24.63 35.16 34.55 33.94
43.24 43.43 43.72 44.31 44.80 45.01 43.49 39.65 43.22 39.34 34.99 33.22 36.68 38.23 35.48 36.17 35.88 31.08 34.08 35.00 35.24 35.01 30.73 29.93 27.92 25.40 26.84 25.64 28.57 27.81 26.49 24.26 22.62 25.38 22.69 20.96 36.78 36.34 30.32 33.10 35.93 35.90 35.09 34.94
43.61 44.22 44.68 44.36 44.87 45.15 44.81 37.93 42.46 43.60 37.80 35.12 39.81 40.79 41.14 40.43 41.02 37.91 38.99 34.73 33.25 34.90 32.20 30.01 29.36 26.21 26.12 25.74 22.17 31.51 23.58 26.68 25.06 27.72 27.05 36.11 37.75 36.69 39.01 38.21 36.58 36.35 34.45 34.35
44.13 43.63 43.51 44.79 44.19 45.03 44.18 39.33 40.93 40.49 37.12 36.25 35.83 35.91 41.89 46.26 44.22 45.47 36.66 35.93 38.89 36.25 37.49 32.29 32.49 29.87 30.42 23.95 26.88 27.74 32.54 35.31 30.80 31.54 34.50 35.55 36.76 37.99 38.94 38.09 37.20 36.69 35.80 34.69
42.85 43.26 43.66 46.37 44.80 45.54 44.21 39.01 41.75 40.33 38.16 31.83 34.32 42.33 41.15 45.98 45.53 44.62 43.12 40.08 40.72 40.22 38.29 33.77 32.67 30.77 35.72 31.80 32.54 28.85 32.65 33.38 32.55 32.38 34.79 35.71 36.27 36.83 36.64 36.45 37.09 36.14 35.67 34.22
45.71 45.20 46.26 46.80 46.18 45.32 44.67 43.53 43.00 44.12 36.82 31.84 32.96 40.77 43.40 44.61 44.01 42.72 43.28 41.88 39.48 37.43 34.19 33.10 31.23 34.56 33.56 34.31 34.01 31.15 34.32 32.85 30.66 29.65 34.78 33.87 34.06 36.74 38.06 35.05 32.70 33.99 31.92 30.30
45.22 45.04 45.48 46.07 46.06 46.19 43.05 35.27 42.79 45.58 43.16 34.98 29.95 37.67 40.59 42.58 42.67 42.08 41.43 41.21 40.09 38.50 33.48 32.64 33.39 36.95 33.60 30.03 28.83 34.78 37.10 37.40 36.52 33.52 36.84 35.33 35.27 35.46 34.93 32.18 31.65 31.81 29.62 29.97
44.18 44.04 44.45 45.13 44.71 42.63 38.64 35.99 41.02 45.03 43.76 34.00 30.31 30.70 38.10 42.20 40.67 40.64 39.88 40.84 37.97 36.16 33.37 31.65 31.86 32.13 34.21 30.27 26.73 34.93 36.59 37.16 35.96 36.23 34.53 30.83 32.28 29.77 32.83 32.82 32.91 33.70 31.74 30.19
44.18 43.74 44.55 45.13 44.96 44.18 39.94 41.35 44.02 45.07 40.31 37.06 29.52 28.49 31.98 39.48 33.98 33.04 38.88 34.19 34.99 33.90 32.00 32.81 30.27 31.88 31.50 27.09 33.56 35.32 36.47 36.38 35.16 34.57 34.57 32.40 32.43 32.43 32.08 32.87 32.77 30.57 28.74 27.16
44.63 44.77 44.66 41.54 39.43 37.09 38.65 43.29 44.21 44.15 38.97 31.38 30.39 27.62 25.87 37.37 33.99 34.02 33.19 34.29 27.83 33.53 29.35 29.58 30.88 28.11 26.38 31.29 33.01 34.41 35.27 34.18 32.81 33.22 33.02 32.67 31.65 31.76 32.89 31.40 30.94 27.77 25.49 24.56
45.65 42.86 36.65 31.90 36.31 42.68 42.57 40.95 35.38 35.43 36.28 35.11 29.24 31.72 28.92 34.00 31.41 30.40 30.30 31.69 29.05 27.21 29.25 32.72 28.20 27.41 33.29 35.15 35.62 35.83 34.87 34.45 34.25 30.70 29.77 30.15 29.99 30.73 28.26 27.00 26.74 25.14 23.32 22.39
40.87 35.25 33.18 37.99 43.89 39.69 36.15 29.95 30.22 31.98 30.35 32.74 31.47 31.93 29.52 35.47 29.38 28.94 31.60 26.69 28.41 23.66 26.32 27.53 26.21 25.22 29.44 35.18 34.33 35.19 35.36 35.16 34.26 33.58 32.31 31.39 28.62 26.24 25.01 23.39 22.89 21.96 21.39 19.99
38.27 38.07 40.44 40.05 37.08 33.03 27.92 26.52 28.02 28.69 27.99 31.85 30.52 30.62 33.16 33.35 35.26 30.15 29.83 27.46 28.36 23.25 30.18 24.74 23.10 25.67 31.59 32.91 32.50 32.74 32.76 32.00 30.73 30.68 28.30 28.16 27.29 24.87 22.56 21.43 20.51 19.71 19.92 16.18
41.31 38.11 32.49 31.44 28.79 23.70 21.99 18.95 23.56 23.56 29.74 32.19 30.08 27.87 31.76 32.46 32.65 27.83 26.78 21.73 21.07 29.79 19.53 21.42 26.40 28.92 29.79 30.86 31.07 29.65 29.65 27.91 25.90 24.26 24.00 23.26 21.94 22.07 20.88 18.45 18.34 17.92 15.69 14.16
33.86 28.78 19.75 22.89 21.33 26.83 26.50 27.24 28.33 29.89 31.59 31.49 31.16 29.78 29.21 29.93 27.73 26.87 21.39 25.49 26.21 18.47 15.83 22.55 28.20 28.35 28.53 29.24 29.10 26.50 24.06 23.48 22.26 20.90 21.07 19.97 19.24 17.64 16.70 15.72 16.08 15.72 14.50 10.65
29.28 28.55 21.03 24.75 28.63 29.65 30.92 33.01 32.68 32.55 32.76 32.56 30.96 30.92 30.80 27.76 25.01 27.02 24.92 20.46 17.55 20.15 20.32 24.17 29.76 29.99 29.82 25.63 24.07 20.63 18.59 17.59 16.68 16.24 15.56 14.29 15.69 16.26 14.38 14.63 14.67 13.42 8.79 5.99
30.26 28.66 27.17 30.69 30.53 30.31 31.72 31.09 30.85 33.71 31.31 32.67 31.88 27.86 24.72 24.50 25.89 24.83 21.59 21.66 17.03 25.87 28.63 29.84 30.36 29.24 25.46 23.10 20.55 19.08 18.50 17.46 16.01 15.46 15.46 13.72 12.40 13.97 12.54 10.92 9.96 6.67 6.57 2.96
28.76 27.49 31.08 30.07 31.53 31.06 32.63 31.98 31.67 34.33 31.18 25.07 27.33 21.73 24.68 26.81 23.18 24.66 27.09 25.45 27.33 29.15 29.38 30.18 30.09 26.49 23.74 21.04 20.57 19.33 18.42 16.50 16.31 15.25 14.61 13.72 14.21 13.33 13.11 10.17 5.19 7.87 6.76 3.89
MSLP
1012.38 1012.61 1013.16 1013.59 1014.08 1014.62 1015.32 1015.54 1015.07 1014.41 1015.12 1015.86 1015.09 1014.78 1013.77 1013.12 1011.78 1011.82 1011.47 1010.84 1010.26 1009.93 1009.57 1008.94 1008.55 1008.02 1007.90 1007.72 1008.80 1009.40 1010.18 1011.82 1012.24 1011.94 1012.14 1012.10 1012.79 1013.47 1014.05 1014.63 1015.36 1015.43 1015.53 1016.42
1011.53 1011.87 1012.30 1012.82 1013.32 1013.83 1014.61 1015.19 1014.07 1014.09 1014.09 1014.07 1013.99 1014.09 1013.11 1012.26 1011.43 1010.88 1010.64 1010.43 1010.02 1010.00 1009.97 1010.19 1009.09 1008.34 1008.05 1008.03 1009.05 1009.95 1010.37 1011.91 1012.73 1012.91 1013.12 1012.85 1012.88 1013.12 1013.54 1014.14 1014.96 1015.67 1015.71 1016.51
1010.41 1010.81 1011.29 1011.85 1012.43 1013.07 1014.05 1014.59 1013.86 1012.97 1012.79 1013.02 1013.00 1012.84 1012.07 1011.39 1010.60 1010.53 1010.20 1010.26 1009.96 1009.95 1010.16 1010.05 1009.59 1009.04 1009.33 1009.17 1009.59 1010.48 1010.90 1011.95 1012.15 1012.30 1012.64 1013.02 1013.20 1012.85 1013.06 1013.86 1014.85 1015.15 1015.18 1016.38
1009.18 1009.60 1010.06 1010.71 1011.42 1012.24 1013.32 1012.95 1012.21 1011.33 1011.11 1011.45 1011.69 1011.21 1010.73 1010.49 1010.32 1010.11 1009.81 1009.94 1009.72 1010.00 1010.50 1009.92 1009.80 1009.68 1010.06 1010.67 1011.11 1011.19 1012.46 1013.28 1013.30 1012.95 1013.22 1013.70 1012.69 1012.55 1012.63 1013.18 1013.78 1014.35 1014.72 1015.83
1007.79 1008.21 1008.65 1009.30 1010.11 1011.06 1011.93 1011.01 1010.90 1010.74 1010.30 1009.68 1010.49 1010.50 1010.41 1009.76 1009.44 1009.40 1009.29 1009.23 1009.05 1009.47 1009.62 1009.54 1009.33 1009.67 1010.25 1010.29 1011.48 1012.02 1013.11 1014.03 1014.45 1014.56 1014.14 1014.00 1012.86 1012.29 1012.36 1012.68 1013.26 1013.66 1014.57 1015.58
1006.22 1006.62 1007.15 1007.78 1008.66 1009.67 1009.49 1010.22 1009.86 1010.37 1009.46 1009.31 1009.59 1009.50 1009.11 1008.41 1008.72 1008.21 1007.94 1008.17 1008.81 1008.78 1007.92 1009.09 1009.28 1009.47 1009.73 1010.31 1011.27 1012.57 1013.59 1014.30 1014.30 1014.32 1014.70 1014.67 1012.80 1011.68 1011.81 1012.23 1012.68 1013.30 1014.48 1015.47
1004.48 1004.79 1005.24 1005.93 1006.68 1007.54 1008.19 1008.13 1008.97 1009.56 1008.46 1008.59 1007.92 1007.74 1007.79 1007.45 1007.44 1007.59 1007.31 1008.02 1007.94 1007.32 1008.70 1009.68 1010.33 1010.06 1010.26 1010.38 1011.46 1012.13 1013.36 1014.15 1014.85 1014.38 1014.35 1013.47 1011.27 1010.60 1010.85 1011.47 1012.13 1013.05 1014.60 1015.93
1002.42 1002.58 1002.85 1003.57 1004.36 1005.40 1006.47 1006.66 1007.28 1007.49 1007.41 1007.22 1007.02 1007.52 1007.22 1007.78 1007.72 1007.51 1007.27 1006.78 1006.71 1007.69 1009.39 1011.45 1012.11 1012.10 1012.08 1011.84 1012.07 1012.36 1012.94 1013.90 1014.47 1013.90 1013.83 1012.42 1010.97 1010.16 1010.56 1011.24 1012.11 1012.64 1014.52 1015.76
999.36 999.66 1000.06 1001.16 1001.00 1002.23 1004.00 1004.59 1005.56 1006.05 1006.14 1005.08 1005.67 1005.98 1006.47 1006.68 1006.96 1007.51 1006.57 1006.56 1006.83 1008.01 1009.78 1011.16 1011.80 1011.97 1011.73 1012.32 1012.37 1012.62 1013.30 1013.75 1014.70 1013.61 1013.48 1012.83 1011.27 1010.08 1010.58 1011.28 1013.29 1013.95 1014.67 1016.20
998.89 999.16 999.48 999.85 1000.40 1001.02 1001.84 1002.52 1003.53 1005.02 1005.21 1004.70 1004.91 1004.81 1004.49 1005.51 1006.32 1006.67 1007.37 1007.34 1007.80 1008.24 1009.41 1010.77 1011.26 1011.16 1010.86 1011.36 1011.41 1011.98 1012.79 1013.56 1013.65 1013.68 1013.42 1012.54 1011.40 1010.46 1011.06 1012.52 1014.97 1015.36 1015.93 1016.94
998.10 998.16 998.38 998.69 999.20 999.99 1000.67 1001.45 1002.26 1002.89 1003.70 1003.57 1004.15 1003.80 1004.27 1004.37 1005.08 1005.89 1006.64 1007.78 1008.58 1009.30 1009.71 1009.93 1010.84 1010.91 1010.69 1010.67 1010.70 1010.88 1011.67 1012.66 1013.06 1013.21 1013.47 1012.82 1011.06 1011.60 1012.38 1013.89 1014.90 1015.97 1017.00 1017.87
996.75 996.54 996.46 996.52 996.72 997.28 998.93 1000.09 1001.39 1002.75 1003.24 1003.76 1003.40 1003.23 1003.50 1003.50 1003.42 1004.47 1005.64 1006.41 1007.36 1008.54 1009.06 1009.37 1009.35 1010.05 1010.13 1010.22 1010.94 1010.70 1011.52 1011.47 1012.09 1012.59 1012.50 1011.89 1011.69 1012.08 1013.18 1013.86 1015.15 1016.55 1017.49 1018.64
995.25 995.26 995.03 994.10 993.54 992.64 994.33 997.12 1000.09 1002.49 1003.44 1004.27 1004.16 1003.42 1003.01 1002.44 1002.86 1002.83 1004.87 1006.32 1006.39 1007.14 1007.26 1008.55 1009.09 1009.52 1009.82 1010.58 1010.62 1010.88 1010.87 1011.23 1011.96 1012.46 1012.35 1012.47 1013.08 1013.34 1013.82 1014.81 1015.89 1017.12 1018.05 1019.05
994.65 994.33 993.71 992.41 991.46 988.10 989.92 995.19 998.15 1001.39 1003.14 1003.74 1003.90 1003.54 1003.13 1002.36 1003.31 1002.82 1003.28 1004.68 1005.42 1006.41 1007.16 1008.50 1009.27 1009.74 1010.07 1010.77 1010.69 1010.84 1010.96 1011.39 1012.41 1012.63 1013.29 1013.26 1013.84 1014.51 1015.28 1016.05 1016.98 1017.93 1018.82 1019.81
993.87 993.54 993.32 992.41 992.13 992.65 993.86 996.17 998.42 1000.22 1001.32 1002.80 1003.57 1003.28 1003.28 1002.95 1003.08 1003.85 1004.49 1004.73 1005.79 1007.02 1008.35 1008.95 1009.69 1009.63 1010.16 1010.77 1011.46 1011.37 1010.96 1011.02 1012.21 1012.71 1013.00 1013.12 1014.62 1015.29 1016.06 1016.95 1018.23 1018.88 1019.80 1020.82
995.03 994.86 994.16 993.90 993.73 994.26 995.42 997.67 1000.15 1000.33 1000.08 1001.86 1004.01 1004.53 1003.85 1003.91 1003.99 1004.54 1005.08 1005.81 1006.47 1007.51 1008.64 1009.06 1009.14 1008.80 1009.48 1010.47 1011.38 1011.65 1011.09 1011.01 1011.49 1013.02 1013.50 1014.52 1015.55 1016.40 1017.13 1018.21 1019.16 1019.95 1020.81 1021.79
996.06 995.63 995.56 995.36 995.34 995.65 996.58 997.63 998.43 999.42 1000.40 1002.22 1003.46 1004.32 1004.89 1004.90 1004.99 1005.40 1006.24 1006.77 1007.44 1007.69 1008.28 1008.63 1008.77 1008.66 1008.59 1009.99 1011.18 1011.79 1011.84 1012.20 1012.86 1013.39 1014.08 1016.23 1016.97 1018.15 1018.57 1019.09 1019.91 1020.61 1021.41 1022.29
996.97 996.49 996.60 996.47 996.28 996.79 997.90 998.94 999.51 1000.10 1000.35 1001.40 1003.12 1004.80 1005.31 1005.50 1005.50 1005.93 1006.81 1007.73 1007.72 1007.77 1008.13 1008.44 1008.88 1008.78 1009.07 1010.51 1010.99 1011.77 1012.45 1013.00 1013.92 1014.56 1015.14 1016.60 1017.95 1018.89 1019.41 1019.76 1020.25 1021.07 1022.13 1023.15
997.75 997.32 997.08 997.23 997.71 998.48 998.96 998.38 998.53 998.52 1000.45 1002.02 1002.87 1003.61 1005.18 1005.59 1005.80 1006.40 1007.22 1007.48 1008.45 1008.34 1008.60 1009.05 1009.30 1009.83 1010.14 1010.62 1011.25 1011.96 1012.63 1013.38 1014.99 1015.88 1016.77 1017.82 1018.37 1019.06 1019.69 1020.28 1020.86 1022.00 1023.26 1024.16
997.81 997.66 998.41 999.34 998.97 998.88 998.64 998.85 999.58 1000.55 1001.15 1002.03 1003.38 1003.71 1004.68 1005.52 1005.88 1006.90 1007.79 1008.46 1009.20 1009.90 1009.70 1009.60 1010.97 1011.11 1010.90 1011.06 1011.55 1012.29 1013.41 1014.42 1015.39 1016.32 1017.32 1018.09 1018.94 1019.64 1020.68 1021.58 1022.40 1023.34 1024.44 1025.48
998.47 998.63 999.18 999.39 998.58 998.96 999.83 1001.08 1001.85 1002.82 1003.70 1004.46 1004.58 1004.63 1004.73 1005.59 1006.34 1007.34 1008.05 1008.85 1009.35 1010.05 1010.38 1010.38 1011.99 1012.60 1012.32 1012.14 1012.73 1013.48 1014.20 1014.87 1015.74 1016.63 1017.58 1018.44 1019.57 1020.71 1021.84 1023.08 1024.08 1024.93 1025.84 1026.81
999.65 999.15 999.20 999.38 999.79 1000.50 1001.57 1002.51 1002.66 1003.30 1004.57 1005.29 1005.19 1005.43 1005.80 1006.56 1006.98 1008.10 1008.75 1009.30 1009.68 1010.25 1010.36 1010.93 1012.55 1013.36 1013.18 1013.36 1014.00 1014.76 1015.50 1016.27 1017.28 1018.05 1018.97 1019.84 1020.85 1021.93 1023.18 1024.40 1025.38 1026.32 1027.02 1027.88
999.32 999.55 1000.46 1000.78 1001.23 1001.67 1002.40 1003.16 1003.58 1004.12 1004.80 1005.15 1005.43 1006.09 1006.77 1007.47 1008.02 1008.95 1009.38 1009.97 1010.28 1010.18 1011.04 1011.95 1012.88 1013.51 1014.11 1014.69 1015.34 1016.32 1017.09 1018.01 1019.18 1020.31 1021.03 1021.74 1022.77 1023.62 1024.42 1025.64 1026.62 1027.22 1027.97 1028.61
1000.56 1001.47 1002.88 1003.18 1003.40 1003.47 1003.18 1002.95 1003.31 1003.79 1004.63 1005.34 1005.84 1006.42 1007.39 1008.13 1008.72 1009.38 1010.34 1010.79 1010.79 1011.32 1011.84 1012.51 1013.20 1013.94 1014.70 1015.55 1016.63 1017.67 1019.07 1019.99 1021.08 1022.00 1022.71 1023.49 1024.23 1025.16 1026.01 1026.63 1027.22 1027.90 1028.79 1029.42
1002.25 1002.95 1004.31 1004.61 1004.54 1004.16 1003.82 1003.75 1004.03 1004.72 1004.90 1005.38 1006.07 1006.80 1007.45 1008.47 1009.21 1009.77 1010.72 1011.47 1011.54 1011.40 1011.71 1012.38 1013.31 1014.29 1015.23 1016.85 1018.11 1019.50 1020.65 1021.72 1022.65 1023.42 1024.16 1024.82 1025.41 1026.12 1026.81 1027.34 1027.91 1028.65 1029.32 1029.86
1003.65 1004.71 1005.35 1005.39 1005.02 1005.30 1005.26 1005.49 1005.52 1005.22 1005.39 1005.49 1006.13 1007.27 1008.01 1008.85 1009.32 1009.95 1010.31 1010.78 1011.30 1011.79 1011.99 1012.63 1013.59 1015.17 1016.81 1018.18 1019.39 1020.64 1021.69 1022.62 1023.59 1024.41 1025.00 1025.54 1026.11 1026.67 1027.35 1027.95 1028.58 1029.15 1029.65 1030.23
1005.63 1006.58 1006.37 1006.21 1006.41 1006.68 1006.82 1006.70 1006.60 1006.00 1006.10 1006.61 1007.10 1007.82 1008.50 1008.79 1009.50 1010.22 1010.87 1011.49 1011.89 1012.28 1012.95 1013.61 1014.64 1016.23 1017.65 1019.04 1020.22 1021.32 1022.28 1023.32 1024.19 1024.76 1025.44 1026.04 1026.50 1027.02 1027.66 1028.49 1029.06 1029.35 1029.85 1030.23
Wind_Speed
18 18 18 17 17 16 6 4 8 6 13 9 4 11 21 16 16 18 15 6 5 13 7 5 14 11 8 5 5 16 8 5 5 10 8 9 5 7 6 6 3 4 5 1
21 20 20 19 18 20 4 3 5 8 10 12 8 8 19 18 13 19 14 14 11 8 10 5 3 1 3 9 6 3 7 4 4 3 2 1 4 9 11 6 3 4 4 4
24 23 23 22 21 21 8 4 5 5 9 5 18 16 16 21 18 21 17 11 11 6 6 7 4 6 3 6 5 13 7 2 6 12 2 6 5 9 11 12 5 5 5 9
25 25 25 25 25 24 12 8 7 6 7 17 12 17 15 23 17 18 13 10 15 10 7 11 9 7 5 5 4 6 6 4 4 4 9 13 7 8 16 10 10 9 8 7
26 27 25 25 27 27 14 7 8 5 4 19 23 21 18 17 21 11 23 19 20 15 19 14 16 7 6 6 4 6 4 8 2 13 14 14 12 10 12 14 9 11 8 3
28 28 28 27 29 28 11 9 8 8 9 7 18 20 27 29 22 22 21 20 14 17 21 15 10 9 9 7 9 5 8 6 4 7 14 18 16 8 7 5 4 8 9 5
30 29 30 30 31 29 12 8 8 12 17 15 15 25 27 27 27 24 16 20 15 21 7 8 7 9 3 10 7 8 10 9 5 2 4 17 5 11 10 12 9 6 11 10
34 35 34 34 36 36 18 12 14 14 14 15 20 16 19 18 14 19 20 15 18 9 8 4 3 1 2 1 6 7 6 8 2 7 11 10 3 4 5 5 6 9 12 10
22 20 27 31 28 37 21 16 12 13 16 18 18 15 24 15 16 13 14 7 5 7 5 4 5 6 6 7 6 14 13 8 7 5 11 13 6 16 5 2 3 8 14 11
18 18 20 23 26 27 15 10 21 13 12 16 18 17 15 11 9 9 5 5 2 5 3 4 3 4 7 8 8 11 12 9 15 6 1 5 5 6 4 5 6 9 11 9
19 23 24 26 28 31 22 11 18 17 10 4 24 16 20 10 13 11 6 5 1 3 6 7 5 4 6 4 7 11 12 10 6 3 5 9 5 5 3 10 9 9 9 11
23 25 23 26 30 37 37 10 14 14 5 3 1 12 4 3 16 12 8 4 6 6 4 4 5 3 3 7 4 5 3 7 6 7 5 1 6 11 12 14 11 11 12 11
12 14 18 21 34 44 47 18 17 14 8 3 3 3 5 3 8 12 9 4 7 5 5 3 1 6 2 4 2 4 4 5 4 4 6 14 11 11 16 15 14 13 13 10
2 7 12 11 11 18 32 18 17 15 5 2 4 4 3 4 8 9 5 11 8 5 4 4 3 4 2 1 2 4 4 9 8 3 13 14 12 15 16 16 14 14 15 13
13 7 6 13 30 29 18 14 17 13 5 5 1 8 3 10 13 16 10 10 13 4 3 3 2 3 3 4 3 3 1 7 5 4 10 10 12 12 16 15 14 12 16 14
17 21 17 21 25 26 14 8 2 9 4 5 4 1 8 10 16 15 14 9 6 5 3 3 3 4 5 4 2 0 4 8 8 6 17 18 18 16 16 15 13 12 12 11
14 11 12 10 12 8 5 3 6 6 6 3 4 4 2 10 12 4 8 5 3 4 4 2 3 1 5 4 3 8 11 15 17 17 19 13 8 9 12 12 9 14 12 12
12 5 10 9 13 12 12 6 8 4 5 4 4 3 3 3 3 4 3 4 2 4 2 3 3 3 4 5 15 14 14 16 14 13 14 15 13 11 9 7 6 12 11 12
7 5 6 7 6 4 1 11 9 4 5 4 3 4 5 2 6 5 3 3 4 3 3 2 4 2 2 14 15 15 13 10 15 16 16 14 13 11 10 8 10 13 13 13
3 4 5 5 3 3 7 7 6 8 5 5 3 3 6 5 2 3 4 3 3 2 2 4 4 4 7 12 12 10 17 18 16 16 12 11 10 9 14 13 11 13 12 11
2 4 3 3 4 4 5 4 4 2 4 4 3 7 10 4 6 3 3 3 3 4 3 4 3 1 3 14 15 13 12 11 9 10 8 10 14 14 14 13 13 12 12 11
3 0 2 2 3 4 7 2 3 5 3 2 5 4 4 4 4 4 4 3 2 3 4 4 4 3 6 12 13 13 14 16 16 15 15 14 14 15 15 12 11 10 10 8
3 4 6 5 4 9 4 4 2 3 4 2 3 4 4 4 4 3 3 5 1 3 4 3 2 9 8 11 12 14 15 17 17 16 16 17 16 13 14 12 8 10 8 6
3 4 7 4 4 4 3 7 5 2 8 8 4 4 4 2 4 2 5 2 4 2 3 3 6 12 10 9 12 14 13 15 14 13 13 14 14 11 8 8 8 9 9 6
4 5 5 3 2 1 3 7 11 5 4 5 4 4 4 2 4 3 4 2 3 4 3 4 9 12 11 12 13 13 12 11 10 9 10 10 10 10 9 8 8 8 6 6
4 8 3 2 10 9 8 5 5 3 2 3 4 4 4 2 4 3 4 5 2 2 3 8 12 12 13 12 11 11 11 11 10 8 9 9 8 10 10 8 7 6 6 6
5 4 3 3 5 6 5 4 3 4 4 2 4 5 1 1 3 3 4 3 2 6 7 8 10 12 13 12 12 11 12 11 10 9 8 7 9 9 10 9 4 5 5 5
Wind_Direction
243 237 235 228 221 218 224 268 215 166 150 199 184 203 205 222 226 229 245 285 290 240 270 274 236 224 176 88 218 206 175 143 201 202 175 207 204 199 190 133 261 239 146 149
244 241 235 227 219 210 142 214 221 174 174 214 193 209 213 233 222 233 218 219 194 245 253 246 207 279 161 113 64 180 172 187 142 120 326 257 201 221 216 202 124 230 139 169
245 241 236 231 223 217 195 175 228 220 200 176 209 199 220 216 225 237 232 254 245 256 248 219 251 244 56 22 106 58 60 141 168 219 134 166 220 220 235 205 200 179 205 125
246 244 239 232 224 215 206 187 221 244 203 195 200 210 203 212 223 218 231 253 236 232 236 250 219 213 191 122 76 75 97 21 13 308 334 288 210 231 227 226 203 188 213 144
244 238 238 233 223 212 215 213 199 200 276 200 201 208 218 217 225 218 219 228 235 226 239 220 241 186 213 176 120 104 180 208 220 276 268 283 277 223 222 239 225 214 178 174
248 242 237 227 220 208 214 211 243 238 231 222 202 212 217 215 222 218 224 220 230 237 233 239 248 220 197 169 145 139 151 151 144 235 228 266 264 220 229 214 235 198 212 150
253 250 241 231 218 209 215 211 202 211 226 228 219 214 215 215 213 229 221 217 231 235 72 61 358 14 129 128 143 145 154 165 156 145 197 226 233 187 223 217 219 171 117 141
261 251 236 232 230 222 216 209 206 204 225 218 222 210 224 232 237 228 229 234 221 148 86 101 139 79 63 270 178 175 166 174 182 171 216 277 294 168 154 187 257 187 129 124
238 227 233 223 219 209 201 206 200 202 205 216 218 204 203 206 218 246 250 242 119 110 131 155 177 179 159 168 203 204 202 187 208 172 216 238 260 224 145 90 68 23 117 109
223 223 228 224 228 217 202 202 198 194 213 228 206 216 211 200 188 220 233 205 103 145 140 154 174 184 161 165 169 173 188 201 209 205 181 288 200 71 69 156 183 96 98 104
242 243 240 228 225 218 213 203 192 193 200 218 216 219 228 207 200 198 182 89 67 128 202 174 174 159 215 135 168 178 182 171 189 141 192 241 127 127 170 139 108 115 95 96
256 253 245 236 228 214 200 207 178 200 181 186 347 235 200 212 218 195 167 183 140 169 150 247 131 180 134 141 177 151 171 166 155 167 202 2 66 114 121 121 124 115 100 98
250 231 257 257 247 236 201 183 163 176 188 345 348 198 336 44 290 182 153 185 162 174 171 153 100 97 77 134 250 103 129 176 91 92 155 114 99 88 98 101 101 114 115 118
272 249 272 292 100 91 134 147 155 158 139 125 228 258 195 103 148 83 107 132 83 93 80 84 84 100 9 147 141 117 176 162 155 168 129 109 101 99 103 93 89 90 84 86
15 131 107 68 121 120 112 118 146 155 149 133 132 100 42 114 115 107 86 103 116 102 68 72 83 105 97 97 61 314 297 149 153 156 158 121 130 122 113 98 83 69 102 83
53 46 47 78 92 105 116 108 118 173 137 96 120 235 130 97 105 108 104 91 76 58 90 137 162 151 134 90 59 49 61 68 122 111 94 93 92 87 97 101 97 85 89 110
22 32 90 92 70 55 55 104 132 90 85 123 113 83 115 123 134 125 133 122 172 136 139 103 139 121 89 115 121 135 100 102 99 109 106 71 46 106 91 101 118 123 115 97
112 96 37 66 92 71 68 51 101 214 118 88 97 114 94 2 68 84 85 130 160 19 128 69 104 15 74 72 123 124 112 95 78 75 80 108 114 111 121 135 142 99 95 99
69 38 29 29 33 61 87 328 348 60 105 128 94 103 106 220 115 117 69 85 59 5 56 72 71 5 55 138 131 128 136 104 119 108 114 122 122 135 125 85 86 100 93 87
32 15 43 27 296 349 339 20 32 20 2 33 65 90 92 131 87 53 77 58 95 71 295 82 48 13 104 120 127 124 117 125 131 131 136 135 135 113 97 90 81 91 92 90
56 20 66 223 335 33 41 52 84 77 70 36 35 94 107 33 82 106 87 152 138 99 249 116 99 10 28 100 107 111 114 119 118 117 117 107 109 110 103 88 88 89 91 92
291 104 161 49 46 53 75 51 9 63 84 143 123 95 71 42 68 79 355 100 66 135 159 88 99 183 102 100 97 93 92 89 83 83 85 92 97 103 103 97 97 98 100 104
346 37 34 30 326 38 86 133 72 91 121 157 98 82 102 67 61 57 79 68 199 89 59 86 128 137 112 108 100 89 92 91 87 84 85 89 92 92 105 112 107 107 102 102
63 64 30 48 2 27 347 88 104 135 114 119 119 78 97 85 60 100 79 266 58 53 115 141 147 140 129 112 111 101 96 98 97 96 96 98 102 101 98 104 108 105 101 97
58 36 52 4 274 310 42 81 93 90 103 95 87 62 85 78 87 79 100 66 216 182 153 141 140 136 113 103 107 110 106 105 102 106 110 111 112 114 103 97 101 106 107 100
54 36 56 1 89 75 69 62 67 26 82 56 55 93 71 83 136 132 185 147 117 117 88 128 128 120 117 115 113 114 114 113 116 119 120 115 113 116 116 103 106 117 120 114
43 17 348 38 57 57 45 29 344 323 71 108 90 68 125 118 83 59 26 44 78 105 115 116 118 123 123 120 117 118 120 124 130 125 122 117 117 116 114 122 156 128 135 137